TimeCST,TemperatureF,Dew PointF,Humidity,Sea Level PressureIn,VisibilityMPH,Wind Direction,Wind SpeedMPH,Gust SpeedMPH,PrecipitationIn,Events,Conditions,WindDirDegrees,DateUTC
12:54 AM,51.1,27.0,39,29.83,10.0,SSE,18.4,-,N/A,,Partly Cloudy,160,2013-11-20 06:54:00
1:54 AM,50.0,27.0,41,29.82,10.0,SSE,17.3,-,N/A,,Clear,160,2013-11-20 07:54:00
2:54 AM,50.0,27.0,41,29.82,10.0,SSE,15.0,-,N/A,,Clear,160,2013-11-20 08:54:00
3:54 AM,48.9,27.0,43,29.81,10.0,SSE,15.0,-,N/A,,Clear,160,2013-11-20 09:54:00
4:54 AM,48.9,28.0,44,29.79,10.0,SSE,15.0,-,N/A,,Clear,160,2013-11-20 10:54:00
5:54 AM,48.9,28.9,46,29.79,10.0,SSE,16.1,27.6,N/A,,Clear,160,2013-11-20 11:54:00
6:54 AM,45.0,30.9,58,29.81,10.0,SE,10.4,-,N/A,,Clear,130,2013-11-20 12:54:00
7:54 AM,43.0,30.9,62,29.82,10.0,SE,15.0,-,N/A,,Clear,130,2013-11-20 13:54:00
8:54 AM,46.9,33.1,59,29.82,10.0,SSE,15.0,-,N/A,,Clear,150,2013-11-20 14:54:00
9:54 AM,50.0,32.0,50,29.82,10.0,South,16.1,-,N/A,,Clear,170,2013-11-20 15:54:00
10:54 AM,51.1,32.0,48,29.81,10.0,South,20.7,-,N/A,,Scattered Clouds,170,2013-11-20 16:54:00
11:54 AM,51.1,32.0,48,29.79,10.0,SSE,18.4,-,N/A,,Partly Cloudy,160,2013-11-20 17:54:00
12:54 PM,54.0,33.1,45,29.77,10.0,SSE,18.4,24.2,N/A,,Clear,160,2013-11-20 18:54:00
1:54 PM,55.9,33.1,42,29.76,10.0,SSE,15.0,21.9,N/A,,Clear,160,2013-11-20 19:54:00
2:54 PM,55.0,33.1,43,29.76,10.0,SSE,15.0,-,N/A,,Clear,160,2013-11-20 20:54:00
3:54 PM,54.0,34.0,47,29.77,10.0,SE,17.3,-,N/A,,Clear,130,2013-11-20 21:54:00
4:54 PM,50.0,34.0,54,29.80,10.0,SE,13.8,-,N/A,,Partly Cloudy,130,2013-11-20 22:54:00
5:54 PM,46.9,34.0,61,29.82,10.0,ESE,9.2,-,N/A,,Clear,120,2013-11-20 23:54:00
6:54 PM,45.0,35.1,68,29.85,10.0,SE,11.5,-,N/A,,Clear,130,2013-11-21 00:54:00
7:54 PM,43.0,35.1,74,29.87,10.0,SE,11.5,-,N/A,,Clear,140,2013-11-21 01:54:00
8:54 PM,41.0,35.1,79,29.89,10.0,SE,9.2,-,N/A,,Clear,130,2013-11-21 02:54:00
9:54 PM,37.9,33.1,83,29.91,10.0,SE,5.8,-,N/A,,Clear,130,2013-11-21 03:54:00
10:54 PM,37.0,33.1,86,29.94,10.0,Calm,Calm,-,N/A,,Clear,0,2013-11-21 04:54:00
11:54 PM,32.0,30.0,92,29.98,9.0,North,9.2,-,N/A,,Clear,360,2013-11-21 05:54:00